Date,TemperatureHighF,TemperatureAvgF,TemperatureLowF,DewpointHighF,DewpointAvgF,DewpointLowF,HumidityHigh,HumidityAvg,HumidityLow,PressureMaxIn,PressureMinIn,WindSpeedMaxMPH,WindSpeedAvgMPH,GustSpeedMaxMPH,PrecipitationSumIn
2013-1-1,34.1,29.1,17.5,28.6,19.8,7.2,86,68,55,29.96,29.72,15,2,21,0.00
2013-1-2,27.5,16.6,5.4,18.6,8.5,-0.6,82,70,63,30.15,29.93,9,2,11,0.00
2013-1-3,23.5,12.2,0.0,8.8,1.7,-7.7,75,63,42,30.18,30.01,5,0,9,0.00
2013-1-4,35.9,25.1,9.1,26.8,19.0,3.6,93,77,67,30.01,29.83,11,2,15,0.00
2013-1-5,38.9,31.7,20.4,28.2,23.2,15.6,83,71,52,30.28,29.86,13,1,14,0.00
2013-1-6,39.3,29.5,20.4,31.3,24.9,16.0,90,83,71,30.25,29.97,8,0,13,0.01
2013-1-7,36.1,27.2,16.5,28.1,21.1,12.0,96,79,55,30.42,29.99,9,0,9,0.00
2013-1-8,41.2,26.0,11.8,31.4,20.7,7.2,96,80,66,30.40,30.29,10,0,12,0.07
2013-1-9,40.6,31.0,18.8,36.0,26.9,15.5,90,85,69,30.45,30.01,10,1,15,0.25
2013-1-10,43.2,38.1,28.0,32.4,28.0,24.3,86,67,54,30.57,30.06,12,2,21,0.27
2013-1-11,36.9,30.8,23.2,32.9,27.0,20.1,97,86,73,30.57,30.25,2,0,4,0.16
2013-1-12,40.7,36.0,33.5,40.7,35.8,32.7,100,99,97,30.25,30.15,1,0,2,0.12
2013-1-13,44.1,38.9,34.2,44.1,38.9,34.2,100,100,100,30.19,30.01,4,0,6,0.00
2013-1-14,53.2,43.1,36.7,49.9,40.4,31.5,100,91,67,30.29,29.89,7,1,13,0.00
2013-1-15,39.9,34.7,29.3,31.6,29.0,26.8,92,80,64,30.36,30.27,3,0,9,0.00
2013-1-16,33.6,31.7,29.9,32.7,30.5,27.2,99,95,88,30.28,29.84,0,0,1,0.03
2013-1-17,39.5,31.7,25.4,35.0,27.0,15.3,99,84,59,30.13,29.85,9,1,12,0.19
2013-1-18,27.6,20.1,14.2,15.6,6.6,1.3,76,56,42,30.46,30.10,11,2,14,0.00
2013-1-19,42.9,32.4,17.3,31.2,23.4,10.4,86,69,58,30.39,29.89,11,2,17,0.12
2013-1-20,47.6,37.3,26.9,34.9,27.4,14.7,85,68,47,29.97,29.56,18,3,25,0.03
2013-1-21,27.7,24.2,18.7,20.5,13.6,7.3,88,64,51,30.12,29.83,10,1,11,0.00
2013-1-22,23.2,18.9,11.7,19.8,9.6,0.9,88,68,48,30.11,29.80,9,2,13,0.00
2013-1-23,14.8,10.5,4.9,1.3,-4.3,-7.9,66,51,36,30.17,30.10,10,2,16,0.00
2013-1-24,18.5,10.0,1.4,-3.4,-6.6,-9.7,63,47,35,30.27,30.10,14,3,17,0.00
2013-1-25,22.5,15.7,7.9,10.3,-2.7,-9.2,68,44,32,30.35,30.10,10,2,14,0.00
2013-1-26,22.9,16.0,8.6,11.0,3.5,-3.2,78,59,35,30.27,30.06,10,2,16,0.00
2013-1-27,28.5,19.1,12.2,6.8,3.7,1.0,66,52,36,30.51,30.26,10,2,13,0.00
2013-1-28,28.3,21.9,12.6,23.3,14.9,3.2,91,75,53,30.50,30.06,3,0,6,0.00
2013-1-29,34.7,29.4,22.5,31.8,26.9,19.5,98,91,84,30.23,30.07,2,0,3,0.09
2013-1-30,53.5,40.8,32.5,53.5,40.6,31.7,100,99,97,30.18,29.46,9,0,9,0.21
2013-1-31,56.9,43.7,28.3,56.9,38.7,19.9,100,83,58,29.62,28.95,16,4,22,0.47
2013-2-1,31.0,26.7,21.3,23.5,14.2,7.4,82,60,44,30.12,29.62,13,3,17,0.00
2013-2-2,28.7,23.2,16.0,16.7,10.1,6.8,70,57,48,30.27,30.07,9,2,11,0.00
2013-2-3,27.9,25.0,19.7,23.2,20.1,15.6,90,81,70,30.09,29.77,4,0,7,0.00
2013-2-4,29.6,23.5,19.5,21.6,13.0,7.8,88,65,46,29.98,29.77,16,2,17,0.00
2013-2-5,30.7,24.9,18.7,21.1,14.2,8.2,84,63,52,30.06,29.97,4,1,6,0.00
2013-2-6,36.9,28.6,23.1,26.3,19.4,8.3,89,70,47,30.34,29.97,11,2,14,0.01
2013-2-7,28.6,22.8,13.6,10.8,7.2,1.8,76,52,37,30.56,30.34,7,1,11,0.00
2013-2-8,24.9,21.2,16.6,18.5,15.1,4.2,95,79,41,30.53,29.76,10,2,14,0.00
2013-2-9,23.0,18.6,14.5,18.9,13.6,3.0,97,81,59,30.26,29.72,18,4,20,0.00
2013-2-10,36.5,19.9,2.0,23.7,8.9,-4.6,76,64,36,30.43,30.27,8,1,11,0.08
2013-2-11,32.3,24.8,13.5,32.3,22.2,6.8,100,90,74,30.39,29.66,3,0,3,0.00
2013-2-12,42.9,36.4,31.9,34.2,31.4,27.3,100,82,66,29.91,29.66,13,3,16,0.35
2013-2-13,42.1,32.5,23.3,30.0,25.9,20.2,89,77,60,29.92,29.77,6,0,7,0.09
2013-2-14,42.0,32.7,23.6,28.1,24.8,20.0,87,74,54,30.02,29.75,5,0,9,0.00
2013-2-15,48.4,33.7,21.3,36.0,27.5,17.7,90,79,59,30.02,29.92,17,1,17,0.00
2013-2-16,39.6,34.1,27.5,33.4,28.3,18.8,97,80,61,30.01,29.79,6,1,8,0.08
2013-2-17,27.5,21.3,15.8,19.4,9.2,2.1,84,60,47,29.79,29.48,17,5,27,0.00
2013-2-18,29.4,21.4,13.1,8.2,4.0,0.9,59,47,32,30.19,29.76,13,4,22,0.00
2013-2-19,44.5,31.0,20.2,38.0,23.1,7.7,96,73,50,30.22,29.62,7,0,12,0.02
2013-2-20,35.6,30.8,25.4,35.5,22.4,15.1,100,72,52,29.82,29.58,12,3,18,0.00
2013-2-21,31.9,26.4,22.5,17.8,15.5,12.1,75,63,51,30.27,29.81,19,3,19,0.00
2013-2-22,39.8,31.5,21.1,25.6,22.2,16.5,84,69,52,30.44,30.27,6,0,10,0.00
2013-2-23,36.7,33.0,28.7,33.0,29.1,23.8,98,86,79,30.39,29.99,6,0,7,0.02
2013-2-24,35.4,33.6,32.3,34.8,33.4,32.1,100,99,97,29.99,29.79,3,0,4,0.11
2013-2-25,39.7,34.0,27.5,36.9,32.9,26.5,100,96,88,30.28,29.96,1,0,2,0.03
2013-2-26,42.3,35.2,28.5,36.6,32.0,27.7,100,89,73,30.38,30.22,5,0,6,0.00
2013-2-27,39.6,35.2,32.8,39.6,34.8,30.7,100,99,89,30.22,29.65,11,1,12,0.00
2013-2-28,42.1,35.8,31.6,40.6,35.3,31.5,100,98,91,29.69,29.59,2,0,4,0.00
2013-3-1,38.7,34.3,29.1,34.9,31.8,28.8,100,91,74,29.69,29.60,3,0,7,0.00
2013-3-2,41.0,36.0,29.7,33.2,29.9,26.8,90,78,71,29.74,29.68,4,0,7,0.00
2013-3-3,40.3,35.0,31.4,33.6,29.7,27.0,88,81,75,29.71,29.63,8,0,8,0.01
2013-3-4,39.4,33.4,28.3,29.3,26.1,22.3,83,75,60,29.82,29.65,12,2,15,0.00
2013-3-5,44.7,36.2,29.0,32.7,28.6,24.1,88,74,60,30.13,29.82,8,0,9,0.00
2013-3-6,37.7,34.7,31.4,35.9,33.6,30.6,100,96,88,30.18,30.11,12,1,15,0.10
2013-3-7,34.9,31.9,30.2,32.8,30.3,27.3,100,94,85,30.18,30.08,7,1,13,0.13
2013-3-8,38.4,33.1,29.6,34.8,31.0,27.0,100,92,72,30.23,30.04,7,0,9,0.01
2013-3-9,51.4,37.0,23.8,31.7,26.8,21.2,92,70,36,30.42,30.23,5,0,8,0.50
2013-3-10,45.3,34.3,21.1,34.9,28.5,17.8,91,80,65,30.48,30.35,4,0,7,0.01
2013-3-11,50.3,40.1,29.0,40.6,35.0,27.3,96,83,64,30.37,30.19,6,0,9,0.00
2013-3-12,51.6,44.3,37.7,51.3,43.9,35.8,100,99,91,30.19,29.76,12,0,12,0.26
2013-3-13,47.4,40.7,30.9,45.5,33.4,24.9,100,77,47,29.85,29.77,8,1,15,0.00
2013-3-14,34.3,29.9,22.4,26.5,18.8,9.3,85,64,51,29.90,29.77,19,2,19,0.00
2013-3-15,39.1,29.4,19.6,30.1,17.2,7.4,86,61,38,29.95,29.68,12,2,16,0.00
2013-3-16,37.5,32.5,26.8,27.6,19.3,15.1,78,59,41,29.95,29.74,6,1,9,0.00
2013-3-17,35.5,28.8,20.6,19.7,14.6,8.3,85,57,35,30.38,29.95,11,1,17,0.00
2013-3-18,37.7,28.1,15.7,27.1,11.8,5.7,87,52,32,30.52,30.29,5,0,10,0.00
2013-3-19,34.7,31.3,27.0,33.6,30.2,25.5,100,96,87,30.29,29.72,7,0,9,0.01
2013-3-20,36.8,29.8,22.9,28.2,24.6,19.3,95,82,64,29.87,29.77,14,1,14,0.12
2013-3-21,39.8,28.3,14.7,26.8,20.2,10.9,88,73,49,29.88,29.65,4,0,4,0.29
2013-3-22,40.0,32.0,25.0,26.3,22.2,18.3,87,67,50,29.80,29.68,10,1,11,0.17
2013-3-23,42.4,33.8,24.0,26.2,22.6,19.1,83,64,45,29.86,29.71,14,3,22,0.12
2013-3-24,45.6,37.2,30.9,29.5,26.3,23.4,80,65,51,29.89,29.80,14,2,17,0.00
2013-3-25,44.8,36.1,27.7,33.6,29.0,23.8,86,76,62,29.84,29.59,8,1,13,0.00
2013-3-26,47.6,39.3,32.0,33.8,28.8,24.6,86,67,43,29.85,29.62,8,1,11,0.01
2013-3-27,52.6,40.1,26.3,33.5,28.2,22.6,88,65,40,29.95,29.81,11,1,12,0.00
2013-3-28,49.2,41.9,35.8,36.2,34.5,32.4,93,76,54,30.08,29.95,4,0,7,0.01
2013-3-29,54.1,42.7,30.1,39.1,33.5,27.5,93,72,48,30.12,30.03,8,1,10,0.00
2013-3-30,54.4,43.6,32.8,34.4,28.1,21.5,89,59,29,30.17,30.06,8,1,12,0.00
2013-3-31,57.7,42.7,26.3,41.5,30.3,22.0,92,65,36,30.20,29.81,10,1,14,0.08
2013-4-1,59.4,45.0,33.7,53.4,39.0,17.9,100,82,48,29.86,29.55,11,2,17,0.42
2013-4-2,39.9,33.8,28.5,21.2,17.6,13.9,64,52,39,29.99,29.86,14,4,19,0.00
2013-4-3,44.6,36.0,28.3,20.9,17.6,15.0,62,48,32,30.23,29.99,13,4,19,0.00
2013-4-4,53.1,41.4,27.7,26.4,21.6,17.2,70,47,30,30.37,30.09,10,2,12,0.00
2013-4-5,59.5,46.6,36.7,33.9,29.1,25.6,74,53,28,30.10,29.71,10,2,15,0.00
2013-4-6,44.3,37.2,29.3,28.3,15.8,9.5,68,44,26,30.40,29.96,17,3,17,0.00
2013-4-7,56.2,40.3,25.0,38.3,26.7,16.4,77,59,37,30.40,30.04,11,2,19,0.00
2013-4-8,63.0,50.1,35.8,43.4,39.4,33.2,96,70,41,30.15,30.02,8,1,10,0.00
2013-4-9,67.8,55.1,45.4,54.1,46.9,40.1,97,75,54,30.13,29.94,10,1,15,0.02
2013-4-10,60.8,52.9,47.0,54.3,49.9,45.3,100,90,76,30.09,29.92,4,0,6,0.57
2013-4-11,52.1,46.9,41.3,50.6,40.1,29.0,100,79,50,30.22,29.91,6,1,9,0.06
2013-4-12,41.5,36.8,35.0,37.0,35.3,32.7,100,95,82,30.26,29.89,7,1,11,0.61
2013-4-13,51.7,43.0,34.6,43.2,38.8,34.6,100,86,64,30.01,29.86,4,1,8,0.10
2013-4-14,52.0,44.5,33.9,41.3,36.2,29.6,95,74,52,30.30,29.99,15,1,15,0.00
2013-4-15,57.5,44.4,29.1,41.5,35.4,26.8,94,73,50,30.45,30.30,7,1,9,0.00
2013-4-16,67.5,51.1,34.1,54.7,45.1,31.7,96,81,56,30.46,30.11,14,2,17,0.02
2013-4-17,64.7,57.0,44.7,55.2,41.7,34.1,93,60,35,30.41,30.12,9,2,12,0.00
2013-4-18,65.1,51.3,34.4,46.6,37.9,30.9,90,63,43,30.51,30.20,8,1,12,0.00
2013-4-19,75.2,63.5,53.0,66.0,59.6,46.8,100,88,70,30.21,29.69,15,2,18,0.00
2013-4-20,66.8,53.1,42.1,65.9,44.4,26.7,100,74,48,30.30,29.67,19,2,19,0.50
2013-4-21,52.3,43.1,32.2,30.7,26.6,22.3,80,54,33,30.75,30.30,10,1,13,0.00
2013-4-22,54.2,42.4,30.1,36.3,31.3,26.6,89,67,40,30.83,30.67,12,1,18,0.00
2013-4-23,40.7,38.8,36.4,40.7,37.1,32.3,100,94,78,30.67,30.21,5,1,7,0.00
2013-4-24,72.9,57.0,40.4,58.0,48.1,40.4,100,76,41,30.21,29.84,8,2,14,0.00
2013-4-25,62.3,54.7,41.1,53.9,40.9,30.2,97,63,33,30.35,29.87,9,2,13,0.07
2013-4-26,62.9,49.6,33.1,43.1,37.2,29.8,90,65,42,30.50,30.35,6,1,9,0.00
2013-4-27,65.6,52.2,35.3,47.3,39.9,32.6,92,65,43,30.50,30.34,4,0,7,0.00
2013-4-28,70.7,55.4,37.1,49.0,41.5,34.2,93,63,39,30.41,30.25,6,1,10,0.00
2013-4-29,70.8,57.9,43.7,53.6,43.0,34.6,85,60,42,30.34,30.23,10,1,11,0.00
2013-4-30,71.6,59.5,46.6,43.8,38.0,32.2,78,48,29,30.43,30.32,8,1,9,0.00
2013-5-1,72.6,56.2,36.5,44.7,39.0,32.2,87,56,33,30.54,30.43,6,1,8,0.00
2013-5-2,79.7,57.6,41.1,53.5,43.8,38.1,91,64,33,30.57,30.39,10,1,15,0.00
2013-5-3,64.6,52.8,39.8,49.9,44.4,36.8,91,74,56,30.62,30.46,6,1,9,0.00
2013-5-4,66.9,53.1,39.2,51.6,41.5,29.2,97,69,30,30.46,30.36,8,1,10,0.00
2013-5-5,67.1,51.0,33.9,47.9,40.4,30.9,94,69,48,30.41,30.30,6,1,11,0.00
2013-5-6,72.7,55.6,34.5,52.9,43.5,31.8,94,68,33,30.36,30.19,9,1,9,0.00
2013-5-7,80.0,63.7,42.2,62.4,53.0,40.0,98,71,42,30.25,30.14,7,1,9,0.00
2013-5-8,73.1,63.1,52.2,68.9,60.6,50.6,100,92,75,30.28,30.12,7,0,11,0.45
2013-5-9,66.8,61.6,58.7,64.5,61.2,58.7,100,99,87,30.11,29.96,3,0,5,0.25
2013-5-10,77.9,66.4,52.8,67.3,60.6,52.8,100,83,55,30.03,29.94,5,0,6,0.01
2013-5-11,68.0,63.6,59.7,66.6,62.4,57.9,100,96,91,29.97,29.76,10,1,10,0.12
2013-5-12,69.7,60.0,47.4,61.0,54.2,39.3,100,82,53,29.88,29.64,7,1,14,0.00
2013-5-13,58.1,48.9,41.0,40.8,37.1,33.5,86,65,46,30.11,29.89,7,1,11,0.00
2013-5-14,58.8,48.9,39.5,41.4,37.6,34.9,91,67,43,30.13,30.05,5,1,12,0.00
2013-5-15,68.0,51.4,33.5,54.5,44.0,30.8,98,79,41,30.13,29.74,7,1,15,0.05
2013-5-16,79.0,65.2,49.0,54.0,48.4,40.8,97,61,33,29.88,29.70,10,2,20,0.00
2013-5-17,67.9,59.0,47.6,50.3,45.9,41.7,88,64,40,30.30,29.89,9,1,14,0.00
2013-5-18,73.4,58.4,40.6,52.4,46.4,38.4,95,68,39,30.39,30.28,6,0,8,0.00
2013-5-19,70.6,57.8,46.7,61.0,53.6,44.8,100,87,63,30.43,30.28,4,0,6,0.05
2013-5-20,80.7,68.4,56.7,71.2,64.1,56.6,100,87,68,30.27,29.99,5,1,8,0.04
2013-5-21,81.1,64.9,51.5,75.2,62.3,51.1,100,92,79,30.14,29.93,4,0,9,0.12
2013-5-22,69.4,58.4,51.5,66.7,57.7,51.5,100,98,90,30.18,29.95,4,0,8,0.96
2013-5-23,74.4,62.9,54.8,73.8,62.8,54.8,100,100,95,30.01,29.85,6,0,9,0.76
2013-5-24,70.7,62.4,48.7,69.8,61.4,48.7,100,97,84,29.92,29.71,6,0,9,0.93
2013-5-25,50.4,46.7,40.5,50.4,46.7,40.5,100,100,100,29.91,29.81,8,1,15,0.47
2013-5-26,56.1,48.1,39.8,47.9,43.8,39.8,100,86,65,30.18,29.80,16,2,16,0.00
2013-5-27,70.5,56.4,38.8,51.2,45.3,37.5,99,70,40,30.27,30.14,7,1,11,0.00
2013-5-28,73.6,59.1,41.7,55.7,49.8,40.1,98,74,45,30.34,30.22,4,0,6,0.00
2013-5-29,69.4,62.2,55.9,67.9,61.7,53.2,100,98,90,30.25,30.04,2,0,4,0.33
2013-5-30,86.3,73.6,59.5,75.8,68.7,59.5,100,86,61,30.15,30.07,7,1,8,0.02
2013-5-31,91.8,78.1,61.7,78.2,70.5,61.1,100,79,56,30.17,30.00,5,1,9,0.00
2013-6-1,91.9,80.5,66.4,77.5,71.7,65.5,100,76,50,30.04,29.91,6,1,10,0.00
2013-6-2,90.6,79.8,70.4,78.3,72.7,69.0,98,80,53,29.94,29.76,10,1,16,0.02
2013-6-3,78.6,69.8,57.3,72.7,66.5,52.8,100,90,68,29.92,29.82,5,0,7,0.26
2013-6-4,62.6,58.0,54.4,53.4,52.4,50.9,88,82,70,30.18,30.09,0,0,0,0.00
2013-6-5,74.6,62.2,47.4,59.8,53.0,46.0,98,74,44,30.27,30.15,4,0,6,0.00
2013-6-6,73.6,63.7,53.2,61.6,56.4,51.9,97,78,59,30.27,30.16,4,0,7,0.03
2013-6-7,59.9,55.6,51.7,58.1,55.3,51.7,100,99,94,30.18,29.92,4,0,5,1.45
2013-6-8,74.8,62.2,51.7,70.0,60.2,51.7,100,94,80,30.07,29.73,6,1,8,0.96
2013-6-9,77.3,66.6,53.5,66.8,60.7,53.5,100,83,60,30.23,30.07,6,1,10,0.00
2013-6-10,70.2,62.4,54.1,65.3,60.4,53.5,100,93,77,30.28,30.09,3,0,5,0.93
2013-6-11,60.6,57.7,54.9,60.6,57.7,54.9,100,100,100,30.08,29.66,3,0,5,0.95
2013-6-12,68.4,61.6,56.2,61.3,58.3,56.2,100,90,75,29.89,29.64,9,1,18,0.11
2013-6-13,63.9,57.0,50.4,63.0,56.4,49.7,100,98,90,29.90,29.78,3,0,6,0.67
2013-6-14,71.2,60.4,52.3,65.5,57.7,52.3,100,92,64,29.85,29.74,3,0,5,0.59
2013-6-15,76.7,65.1,51.8,59.0,55.4,51.2,100,74,43,30.01,29.86,6,1,12,0.01
2013-6-16,76.0,65.6,52.9,66.7,60.4,52.0,100,84,62,30.02,29.77,6,0,8,0.00
2013-6-17,84.1,69.7,60.4,72.2,65.3,59.3,99,87,61,29.97,29.84,6,1,9,0.52
2013-6-18,71.0,62.2,56.8,66.9,61.4,56.8,100,98,84,30.02,29.94,2,0,4,0.58
2013-6-19,73.2,64.1,54.6,62.0,57.2,52.0,100,80,49,30.21,29.98,5,0,6,0.01
2013-6-20,78.3,65.0,48.3,64.7,56.5,47.2,99,76,49,30.33,30.22,6,0,8,0.00
2013-6-21,82.8,70.3,55.3,69.1,62.0,54.4,100,78,49,30.30,30.24,5,0,6,0.00
2013-6-22,84.8,72.9,59.9,73.5,66.5,59.0,99,81,62,30.29,30.15,6,1,11,0.00
2013-6-23,90.0,78.6,66.9,79.9,72.0,63.8,94,80,68,30.20,30.03,6,1,9,0.00
2013-6-24,92.5,80.3,70.7,81.7,74.9,70.2,100,85,60,30.07,29.93,6,1,9,0.20
2013-6-25,89.3,78.3,68.2,80.5,74.3,68.2,100,88,67,29.99,29.77,4,1,10,0.07
2013-6-26,82.7,74.4,68.4,77.4,72.9,68.4,100,95,80,29.91,29.78,4,0,7,0.12
2013-6-27,70.5,67.7,64.6,70.5,67.7,64.6,100,100,100,29.92,29.81,2,0,5,0.04
2013-6-28,76.6,66.5,59.2,76.6,66.5,59.2,100,100,98,29.82,29.53,4,0,7,0.86
2013-6-29,82.4,74.6,68.7,76.2,72.3,68.7,100,93,76,29.76,29.55,9,1,12,0.01
2013-6-30,85.2,76.4,66.5,78.9,73.4,66.5,100,91,75,29.98,29.76,6,0,8,0.00
2013-7-1,78.7,74.3,72.1,77.1,74.0,72.1,100,99,94,30.12,29.97,1,0,4,1.36
2013-7-2,82.5,73.8,64.2,79.5,72.9,64.2,100,97,86,30.26,30.11,4,0,9,0.01
2013-7-3,86.0,75.0,63.3,79.6,72.6,63.3,100,93,78,30.26,30.18,6,1,9,0.00
2013-7-4,91.3,82.6,72.6,82.8,77.9,72.6,100,87,70,30.25,30.14,9,1,13,0.00
2013-7-5,92.3,83.9,74.7,83.1,78.8,74.7,100,85,70,30.21,30.08,6,1,9,0.00
2013-7-6,89.0,81.2,72.4,81.2,75.4,68.4,100,83,63,30.13,30.04,6,1,9,0.00
2013-7-7,89.0,77.9,67.3,82.5,74.6,66.4,100,90,75,30.08,29.96,4,0,5,0.00
2013-7-8,86.7,77.4,70.1,81.2,75.5,69.5,100,94,76,30.13,29.96,5,0,6,0.01
2013-7-9,73.5,69.8,66.1,72.5,69.4,66.1,100,99,95,30.17,30.10,2,0,3,0.00
2013-7-10,81.3,73.2,67.3,81.3,73.1,67.3,100,100,93,30.13,29.83,5,0,7,0.18
2013-7-11,82.1,75.4,70.2,79.2,74.5,70.2,100,97,84,30.00,29.81,3,0,6,0.22
2013-7-12,78.4,71.9,65.7,70.5,67.0,64.5,100,85,63,30.26,30.00,5,0,8,0.00
2013-7-13,78.1,71.2,65.3,75.4,69.1,63.6,100,93,87,30.36,30.26,3,0,4,0.00
2013-7-14,89.7,79.1,68.2,80.3,75.3,68.2,100,89,68,30.35,30.25,3,0,8,0.00
2013-7-15,90.1,80.6,70.3,81.2,76.2,70.3,100,87,63,30.26,30.14,5,0,6,0.00
2013-7-16,91.1,80.6,68.2,79.0,74.3,68.2,100,83,59,30.22,30.16,4,0,7,0.00
2013-7-17,93.6,82.4,69.8,80.7,76.2,69.8,100,83,59,30.23,30.03,5,0,7,0.00
2013-7-18,94.7,83.1,75.1,83.9,78.2,74.7,100,86,57,30.06,29.98,4,0,5,0.15
2013-7-19,95.7,84.3,71.8,83.3,78.6,71.8,100,84,61,30.00,29.76,7,1,15,0.00
2013-7-20,91.8,82.3,72.4,81.7,76.0,69.4,97,82,66,29.87,29.71,6,1,12,0.00
2013-7-21,83.1,74.6,65.1,74.3,70.1,64.7,100,86,69,30.03,29.87,5,0,5,0.00
2013-7-22,81.3,72.4,65.2,75.7,70.3,65.2,100,93,81,30.07,29.93,7,0,7,0.00
2013-7-23,77.6,71.7,68.8,77.6,71.6,68.8,100,100,95,29.93,29.58,6,0,8,1.74
2013-7-24,83.4,74.4,63.2,83.0,71.0,56.3,100,90,72,30.02,29.62,5,1,7,0.00
2013-7-25,64.5,61.8,58.2,62.0,57.8,52.0,100,87,77,30.16,30.02,3,0,3,0.02
2013-7-26,73.2,65.7,61.6,71.4,65.2,61.6,100,98,88,30.12,29.99,4,0,5,0.69
2013-7-27,82.8,71.2,58.0,72.9,66.7,58.0,100,87,61,30.10,30.02,4,0,6,0.00
2013-7-28,81.6,71.5,62.6,75.8,69.2,62.3,100,93,75,30.07,29.99,4,0,7,0.13
2013-7-29,83.6,74.2,68.2,76.5,71.9,67.5,100,93,76,30.09,29.98,3,0,10,0.01
2013-7-30,82.0,71.6,60.2,68.7,64.6,59.3,100,80,55,30.15,30.07,4,0,8,0.00
2013-7-31,81.4,71.1,59.1,70.9,65.3,58.2,100,83,60,30.20,30.08,3,0,6,0.00
2013-8-1,81.4,69.0,58.4,73.3,66.2,57.8,100,91,73,30.09,29.91,5,0,7,0.10
2013-8-2,81.5,72.2,65.4,73.2,67.7,64.9,100,87,60,29.91,29.83,5,0,8,0.72
2013-8-3,78.1,69.4,61.6,69.5,64.9,60.2,100,86,64,29.90,29.81,4,1,11,0.00
2013-8-4,78.2,67.1,55.8,67.3,60.9,55.0,100,82,60,29.95,29.81,5,0,9,0.00
2013-8-5,74.0,64.1,54.4,57.6,54.0,50.4,98,73,44,30.11,29.94,10,1,12,0.00
2013-8-6,77.9,64.6,49.5,63.6,57.1,48.0,97,78,55,30.19,30.11,9,0,9,0.00
2013-8-7,79.5,67.4,54.0,67.7,60.3,52.9,99,80,54,30.24,30.13,6,0,8,0.00
2013-8-8,80.1,72.7,65.7,75.5,70.4,62.5,100,93,84,30.15,30.03,5,0,6,0.02
2013-8-9,75.3,72.7,70.0,75.3,72.5,70.0,100,99,97,30.05,29.78,3,0,8,1.63
2013-8-10,80.4,71.4,62.4,71.7,66.8,59.7,100,86,64,30.06,29.82,7,1,9,0.00
2013-8-11,77.8,66.4,53.8,66.5,60.5,52.9,100,83,58,30.13,30.03,9,0,9,0.00
2013-8-12,80.2,68.8,56.8,69.5,63.1,56.1,100,84,59,30.07,29.95,3,0,6,0.00
2013-8-13,74.3,67.6,63.6,72.8,67.4,63.3,100,99,93,29.96,29.71,3,0,7,0.09
2013-8-14,72.8,65.4,57.2,65.2,60.8,56.6,100,86,66,30.01,29.70,8,1,11,0.00
2013-8-15,75.5,63.3,50.1,63.1,57.8,50.1,100,84,60,30.15,30.01,7,1,10,0.00
2013-8-16,77.9,64.4,51.0,66.6,59.4,51.0,100,86,61,30.24,30.15,4,0,8,0.00
2013-8-17,78.9,66.4,52.0,70.9,62.7,52.0,100,89,64,30.32,30.24,3,0,4,0.00
2013-8-18,77.5,67.7,56.3,72.5,65.6,56.3,100,93,74,30.32,30.12,4,0,6,0.00
2013-8-19,79.6,69.4,58.2,71.3,65.8,58.2,100,89,65,30.12,29.99,5,0,7,0.00
2013-8-20,83.2,71.7,59.8,73.5,67.4,59.8,100,88,63,30.13,30.02,4,0,6,0.00
2013-8-21,85.7,72.8,59.7,74.5,68.3,59.7,100,87,61,30.19,30.06,5,0,7,0.00
2013-8-22,85.0,69.4,61.3,76.0,67.5,61.3,100,95,70,30.07,29.96,4,0,7,0.00
2013-8-23,78.8,72.1,60.0,68.4,62.5,57.0,99,73,54,30.17,29.97,5,1,7,0.00
2013-8-24,75.1,63.6,51.6,61.5,56.7,51.6,100,80,51,30.37,30.18,3,0,6,0.00
2013-8-25,80.3,65.5,49.5,68.2,59.0,49.5,100,82,50,30.43,30.21,4,0,7,0.00
2013-8-26,78.7,70.3,62.9,73.9,68.5,61.7,100,94,83,30.21,29.89,5,0,7,0.08
2013-8-27,83.4,74.9,68.5,75.6,71.9,68.5,100,91,69,29.93,29.85,3,0,6,0.01
2013-8-28,84.3,73.0,63.2,76.6,70.4,63.2,100,92,74,30.02,29.87,3,0,6,0.00
2013-8-29,69.4,65.5,62.3,69.4,65.5,62.3,100,100,100,30.11,29.98,3,0,5,0.19
2013-8-30,81.7,70.3,58.4,75.3,68.0,58.4,100,93,76,30.06,29.84,4,0,7,0.00
2013-8-31,80.1,73.6,69.0,80.0,73.6,69.0,100,100,98,29.85,29.79,4,0,7,0.23
2013-9-1,80.9,75.5,70.5,79.7,75.1,70.5,100,99,92,29.89,29.81,5,0,6,0.00
2013-9-2,78.6,74.8,72.2,78.6,74.8,72.2,100,100,100,29.88,29.72,3,0,6,0.09
2013-9-3,78.4,71.1,62.7,76.0,69.8,62.1,100,96,86,29.84,29.72,4,0,6,0.00
2013-9-4,78.4,67.1,56.8,67.3,62.4,56.8,100,86,60,29.94,29.83,12,0,12,0.00
2013-9-5,69.3,62.9,58.1,63.0,57.7,51.0,100,85,55,30.06,29.88,1,0,9,0.00
2013-9-12,79.9,72.7,67.6,79.5,72.5,67.6,100,99,94,29.75,29.68,0,0,1,0.84
2013-9-13,67.6,64.0,59.0,67.6,63.8,58.7,100,99,94,29.80,29.65,0,0,1,0.06
2013-9-14,65.6,59.1,51.9,60.7,57.1,51.9,100,93,80,30.10,29.79,2,0,8,0.00
2013-9-15,69.4,57.1,44.6,58.8,53.3,44.6,100,88,63,30.22,30.08,2,0,5,0.00
2013-9-16,64.6,56.5,46.9,62.0,54.1,42.9,100,92,79,30.29,30.04,0,0,4,0.02
2013-9-17,60.8,49.5,37.8,51.3,44.7,37.7,100,85,62,30.47,30.30,0,0,4,0.00
2013-9-18,70.4,54.0,37.9,57.1,48.6,37.9,100,85,51,30.36,30.17,0,0,2,0.00
2013-9-19,75.4,59.1,43.0,63.4,54.5,43.0,100,87,56,30.17,30.05,0,0,3,0.00
2013-9-20,76.1,60.7,46.1,64.8,56.9,46.1,100,89,61,30.12,30.01,0,0,3,0.00
2013-9-21,72.8,61.5,46.9,69.4,59.9,46.9,100,95,83,30.05,29.73,4,0,11,0.01
2013-9-22,67.7,62.7,51.8,67.5,60.6,51.5,100,93,72,29.87,29.62,2,0,6,0.72
2013-9-23,61.2,51.5,43.2,51.5,47.4,43.2,100,87,68,30.04,29.87,4,0,6,0.00
2013-9-24,64.4,51.5,39.3,52.9,46.8,39.3,100,86,59,30.03,29.86,3,0,7,0.00
2013-9-25,67.3,54.5,41.2,58.9,51.5,41.2,100,90,72,30.03,29.91,0,0,3,0.00
2013-9-26,65.3,57.6,52.5,57.0,54.5,52.3,100,90,70,30.17,30.03,2,0,2,0.00
2013-9-27,64.5,57.9,50.0,59.9,56.3,50.0,100,95,82,30.29,30.17,0,0,1,0.00
2013-9-28,71.2,56.4,43.5,63.1,54.2,43.5,100,93,72,30.37,30.29,0,0,2,0.00
2013-9-29,66.3,52.8,41.6,58.6,50.1,41.6,100,91,61,30.30,30.14,0,0,2,0.00
2013-9-30,67.6,52.1,37.9,59.4,49.9,37.9,100,93,70,30.16,29.99,0,0,1,0.00
2013-10-1,74.4,57.6,41.6,64.3,54.3,41.6,100,90,62,30.00,29.87,0,0,2,0.00
2013-10-2,77.0,62.3,49.1,69.0,59.9,49.1,100,92,73,29.98,29.86,4,0,6,0.00
2013-10-3,73.3,60.1,48.6,61.2,56.1,48.6,100,88,53,30.12,29.98,0,0,1,0.00
2013-10-4,60.3,55.6,50.2,60.3,55.6,50.2,100,100,100,30.13,30.06,0,0,0,0.41
2013-10-5,66.2,60.7,56.4,64.3,60.3,56.4,100,99,91,30.15,30.08,0,0,0,0.00
2013-10-6,60.8,55.1,51.8,60.8,55.1,51.8,100,100,100,30.27,30.13,0,0,0,0.46
2013-10-7,71.4,60.8,54.0,71.4,60.8,54.0,100,100,100,30.16,29.80,9,0,13,0.47
2013-10-8,63.3,53.9,43.6,58.4,50.6,43.6,100,90,63,30.41,29.92,1,0,5,0.00
2013-10-9,60.2,50.2,37.6,53.1,47.6,37.6,100,91,73,30.52,30.40,0,0,2,0.00
2013-10-10,58.0,48.4,38.5,55.9,47.8,38.5,100,98,86,30.40,30.22,0,0,0,0.00
2013-10-11,68.0,54.9,43.6,57.5,49.8,43.6,100,86,42,30.22,30.13,0,0,2,0.00
2013-10-12,55.6,51.1,43.4,55.6,51.1,43.4,100,100,100,30.44,30.19,0,0,0,0.02
2013-10-13,57.4,50.3,41.1,55.4,49.7,41.1,100,98,90,30.49,30.42,1,0,3,0.00
2013-10-14,61.7,48.1,34.3,53.6,45.9,34.3,100,93,70,30.45,30.27,0,0,1,0.00
2013-10-15,65.0,56.2,50.5,61.4,55.3,50.5,100,97,86,30.30,30.20,0,0,0,0.00
2013-10-16,59.2,54.3,49.0,56.9,53.6,49.0,100,98,88,30.23,29.94,0,0,0,0.00
2013-10-17,70.2,56.7,46.8,63.6,54.6,46.8,100,93,70,29.95,29.74,1,0,7,0.00
2013-10-18,65.4,58.0,44.4,60.6,54.4,44.1,100,89,66,29.94,29.62,6,0,14,0.03
2013-10-19,64.4,51.0,36.2,52.7,46.6,36.2,100,86,61,30.00,29.76,4,0,7,0.00
2013-10-20,58.8,51.2,38.7,53.2,45.5,37.2,100,82,58,30.05,29.71,9,0,13,0.00
2013-10-21,63.1,47.6,34.1,51.2,43.3,34.1,100,87,60,30.14,30.01,2,0,6,0.00
2013-10-22,61.3,49.4,39.2,56.2,47.2,39.2,100,93,79,30.01,29.73,6,0,11,0.00
2013-10-23,50.5,42.4,32.8,43.8,39.8,32.8,100,91,72,29.83,29.62,0,0,0,0.00
2013-10-24,51.4,43.6,33.2,42.0,36.8,33.0,100,78,57,29.92,29.68,8,0,13,0.00
2013-10-25,48.9,39.8,30.2,40.1,34.1,27.8,100,81,60,30.18,29.91,2,0,8,0.00
2013-10-26,52.4,39.9,26.1,40.7,33.1,25.3,100,79,54,30.19,29.89,8,0,12,0.00
2013-10-27,53.4,46.9,37.0,42.9,39.0,33.0,92,74,58,30.09,29.83,5,0,12,0.00
2013-10-28,55.8,41.5,29.4,44.1,35.3,28.6,100,80,56,30.39,30.09,7,0,12,0.00
2013-10-29,46.4,34.4,25.2,31.7,27.0,23.7,97,76,46,30.50,30.39,1,0,2,0.00
2013-10-30,51.2,37.6,28.4,44.7,34.5,24.5,99,89,77,30.40,30.22,0,0,5,0.00
2013-10-31,57.9,42.7,29.6,57.9,42.6,29.6,100,100,99,30.27,29.80,0,0,4,0.16
2013-11-1,65.3,61.3,51.1,65.3,60.8,51.1,100,98,91,29.79,29.44,14,0,14,0.18
2013-11-2,62.3,50.5,39.1,53.0,48.1,39.1,100,92,66,29.77,29.62,0,0,2,0.01
2013-11-3,47.1,40.0,30.8,47.1,31.9,24.2,100,74,48,30.45,29.77,1,0,5,0.00
2013-11-4,40.5,31.6,23.8,25.7,23.1,20.7,91,72,47,30.74,30.46,1,0,4,0.00
2013-11-5,47.6,34.6,23.6,37.7,30.2,20.9,96,85,67,30.76,30.53,1,0,3,0.00
2013-11-6,58.1,47.0,34.2,51.2,44.0,32.9,100,90,74,30.53,30.05,3,0,8,0.00
2013-11-7,61.7,52.5,37.1,60.8,51.5,35.3,100,96,84,30.05,29.71,4,0,9,0.04
2013-11-8,47.2,36.9,28.6,39.1,32.2,26.8,99,83,67,30.12,29.85,4,0,9,0.00
2013-11-9,43.3,36.0,26.3,34.3,30.1,24.5,95,80,60,30.24,30.04,0,0,4,0.00
2013-11-10,51.1,43.1,36.8,47.3,39.4,34.3,100,87,75,30.04,29.76,1,0,8,0.01
2013-11-11,49.1,43.2,37.4,36.7,34.5,31.1,81,71,54,30.13,29.89,5,0,7,0.00
2013-11-12,46.0,35.2,26.9,41.1,28.2,19.7,95,76,63,30.21,29.90,12,0,12,0.01
2013-11-13,34.6,27.7,22.4,22.1,19.4,17.1,88,72,52,30.33,30.17,6,0,8,0.00
2013-11-14,49.1,36.6,24.9,33.0,27.1,20.2,85,69,51,30.18,30.06,3,0,9,0.00
2013-11-15,56.7,38.9,26.0,32.3,27.6,22.3,88,67,33,30.24,30.12,2,0,8,0.00
2013-11-16,57.0,41.0,31.5,41.0,34.1,28.2,93,78,52,30.36,30.22,0,0,0,0.00
2013-11-17,45.6,38.4,29.3,45.4,37.9,28.1,100,98,93,30.37,29.89,0,0,0,0.00
2013-11-18,61.0,51.9,44.7,57.3,48.3,37.7,100,88,67,29.88,29.55,8,0,9,0.17
2013-11-19,46.0,38.2,30.3,37.6,28.0,20.6,75,66,56,30.33,29.70,13,0,13,0.00
2013-11-20,39.8,31.7,22.0,22.5,19.9,17.5,84,63,44,30.68,30.32,4,0,8,0.00
2013-11-21,44.5,31.2,17.9,34.4,24.7,15.7,93,78,48,30.70,30.40,5,0,8,0.00
2013-11-22,43.5,41.2,37.6,43.5,40.6,34.1,100,98,87,30.40,29.85,2,0,4,0.13
2013-11-23,44.0,37.7,28.7,44.0,31.3,17.1,100,78,58,29.98,29.82,10,2,15,0.00
2013-11-24,28.6,23.2,18.9,19.2,8.6,1.9,75,54,37,30.24,29.84,14,3,27,0.00
2013-11-25,31.9,24.3,15.7,19.1,9.2,1.9,64,53,34,30.40,30.24,4,0,10,0.00
2013-11-26,36.6,33.0,29.8,33.8,27.1,18.6,100,79,60,30.37,30.09,3,0,8,0.20
2013-11-27,50.3,41.2,33.4,50.3,41.2,33.4,100,100,100,30.09,29.28,1,0,7,2.41
2013-11-28,35.7,29.0,21.4,35.7,22.5,14.1,100,78,53,30.47,29.50,10,1,16,0.00
2013-11-29,31.5,24.7,16.9,21.3,16.6,11.5,90,72,51,30.78,30.46,9,0,10,0.00
2013-11-30,29.9,21.8,10.7,24.0,16.3,7.6,90,80,64,30.87,30.48,6,0,6,0.00
2013-12-1,34.5,31.7,27.4,34.5,30.7,23.9,100,96,86,30.47,30.07,0,0,0,0.10
2013-12-2,38.7,36.3,34.3,38.7,36.3,34.3,100,100,100,30.07,29.96,0,0,0,0.00
2013-12-3,46.5,36.2,27.6,44.3,35.4,27.6,100,97,82,30.00,29.89,0,0,3,0.01
2013-12-4,40.3,31.0,23.7,35.9,29.5,23.7,100,94,77,30.24,30.00,0,0,4,0.00
2013-12-5,38.8,34.7,27.9,38.8,34.7,27.9,100,100,100,30.27,29.96,0,0,5,0.02
2013-12-6,48.2,42.8,34.5,48.2,42.3,34.5,100,98,84,30.23,29.91,0,0,5,0.23
2013-12-7,36.6,32.3,23.2,36.3,31.2,23.2,100,96,81,30.52,30.15,0,0,8,0.15
2013-12-8,30.0,25.5,18.5,26.3,22.8,18.0,100,90,71,30.65,30.52,0,0,2,0.00
2013-12-9,33.5,29.9,25.1,33.5,29.3,23.0,100,98,83,30.55,29.93,0,0,0,0.00
2013-12-10,34.5,30.3,22.8,34.0,29.3,19.1,100,96,81,30.04,29.84,3,0,5,0.00
2013-12-11,30.7,23.6,16.9,24.0,20.3,15.7,98,87,75,30.24,30.04,6,0,13,0.00
2013-12-12,23.5,17.9,8.8,21.0,11.7,4.6,95,78,54,30.30,30.09,7,0,13,0.00
2013-12-13,27.7,18.9,8.6,21.6,14.5,4.5,88,83,74,30.44,30.05,7,0,9,0.00
2013-12-14,16.2,12.4,8.9,13.8,5.4,-0.1,96,74,55,30.66,30.23,0,0,0,0.00
2013-12-15,28.6,21.2,14.9,27.9,20.7,13.9,100,98,95,30.23,29.51,2,0,3,0.00
2013-12-16,25.8,20.5,10.8,20.4,14.3,5.6,100,77,60,30.25,29.77,7,0,10,0.00
2013-12-17,15.8,7.9,-4.1,15.0,4.6,-9.5,98,86,76,30.35,30.03,0,0,0,0.00
2013-12-18,31.9,23.2,15.9,26.0,20.7,14.8,100,91,75,30.11,29.95,8,0,10,0.00
2013-12-19,38.3,29.5,18.8,30.5,26.0,17.3,99,87,72,30.15,30.00,7,0,8,0.00
2013-12-20,47.7,33.9,26.8,40.9,32.5,25.9,100,95,74,30.17,29.94,1,0,1,0.40
2013-12-21,49.7,37.2,29.6,49.4,37.2,29.6,100,100,98,30.00,29.89,0,0,0,0.37
2013-12-22,39.6,35.4,33.3,39.6,35.4,33.3,100,100,100,30.08,29.85,0,0,0,0.04
2013-12-23,35.3,33.4,32.3,35.3,33.4,32.3,100,100,100,30.14,30.01,0,0,1,0.42
2013-12-24,34.6,30.2,24.5,34.6,28.0,19.3,100,92,77,30.26,30.10,3,0,7,0.00
2013-12-25,24.7,18.4,13.2,19.4,10.5,5.5,84,71,58,30.58,30.25,4,0,8,0.00
2013-12-26,27.6,20.8,15.5,27.1,18.6,12.0,98,91,84,30.54,30.13,0,0,0,0.00
2013-12-27,32.0,21.4,10.2,26.4,18.7,8.1,100,89,77,30.33,30.25,2,0,7,0.03
2013-12-28,33.7,21.3,16.0,30.7,20.0,14.5,100,95,88,30.27,30.13,3,0,8,0.00
2013-12-29,36.2,33.3,25.1,35.8,33.2,24.8,100,100,97,30.08,29.52,0,0,4,0.98
2013-12-30,38.0,30.7,18.1,38.0,26.6,12.4,100,85,65,30.22,29.59,7,0,11,0.06
2013-12-31,23.8,17.4,11.0,16.3,11.6,6.1,90,78,63,30.23,30.06,1,0,6,0.00
2014-1-1,25.2,18.2,9.8,15.0,12.0,6.4,89,77,62,30.43,30.22,6,0,9,0.01
2014-1-2,18.1,10.6,0.9,15.9,7.8,-2.3,93,89,85,30.42,29.96,5,0,8,0.00